Location: Monrovia
(34.7865°N, 86.7139°W)
Time: 00:08:41
(UTC+00:00)

H-2A R/B - Pass Details

Date: 14 July 2020
Orbit: 732 x 838 km, 98.2° (Epoch: 12 August)

Event Time Altitude Azimuth Distance (km) Brightness Sun altitude
Rises 01:38:02 0° 181° (S) 3,370 5.0 -7.4°
Reaches altitude 10° 01:40:29 10° 187° (S) 2,442 4.4 -7.8°
Maximum altitude 01:45:41 47° 261° (W) 1,099 3.2 -8.7°
Drops below altitude 10° 01:50:54 10° 334° (NNW) 2,437 5.7 -9.6°
Sets 01:53:21 0° 341° (NNW) 3,364 6.3 -10.0°
